Location: Albany
(35.0170°S, 117.8920°E)
Time: 17:06:06
(UTC+08:00)

Explorer 11/Cluster Stage 4 - Pass Details

Date: 30 January 2021
Orbit: 467 x 1257 km, 28.8° (Epoch: 02 March)

Event Time Altitude Azimuth Distance (km) Brightness Sun altitude
Rises 09:25:40 0° 274° (W) 3,777 9.7 47.3°
Reaches altitude 10° 09:28:47 10° 280° (W) 2,691 9.1 47.9°
Maximum altitude 09:34:42 39° 347° (NNW) 1,201 8.0 49.1°
Drops below altitude 10° 09:39:29 10° 55° (NE) 2,165 9.7 50.1°
Sets 09:41:46 0° 63° (ENE) 2,964 10.2 50.5°
